Погода в Боготоле

Россия / Красноярский край     56°10′22″N   89°35′08″E
темп.,
°C
ветер,
м/с
пор.,
м/с
влажн.,
%
обл.,
%
осадки,
мм/ч
давл.,
гПа
погр.,
м
9 мая, вс
вс901:00+3зсз378569 0.1 1015381
04:00+2сз378938 0.0 1016345
07:00+2сз47825 0.0 1017413
10:00+6сз565785 0.1 10171533
13:00+7ссз4652100 0.1 10181450
16:00+8сз565094 0.1 10181524
19:00+6ссз677677 0.5 1020908
22:00+4с478294 0.1 1022659
10 мая, пн
пн1001:00+4с358596 0.1 1022247
04:00+2с118610 0.0 102316
07:00+4ссз11825 0.0 1024135
10:00+8св22658 0.0 1024916
13:00+11св234749 0.0 10231630
16:00+13св344496 0.0 10221893
19:00+12в45524 0.0 10221063
22:00+8вюв22675 0.0 102226
11 мая, вт
вт1101:00+6св34745 0.0 102156
04:00+5всв36845 0.0 1020103
07:00+7всв48775 0.0 1019222
10:00+13всв575231 0.0 10171174
13:00+16всв663881 0.0 10162334
16:00+16св5634100 0.0 10142325
19:00+15ссв6946100 0.0 1015622
22:00+10ссв41163100 0.0 1017310
12 мая, ср
ср1201:00+8св41077100 0.0 1017278
04:00+7св4108862 0.0 1017300
07:00+7всв598462 0.2 1018379
10:00+11всв67606 0.0 1019860
13:00+14св554581 0.0 10181813
16:00+14св453859 0.0 10182080
19:00+13св45395 0.0 10182032
22:00+8в34593 0.0 102074
13 мая, чт
чт1301:00+6вюв11620 0.0 102010
04:00+5в11660 0.0 102010
07:00+7в12610 0.0 1020107
10:00+12юв22430 0.0 10191182
13:00+15юв11334 0.0 10171806
16:00+16зюз12304 0.0 10152078
19:00+15зюз34345 0.0 10132120
22:00+10зюз33472 0.0 101332